Tracking 18630 objects as of 22-May-2017
HD Live streaming from Space Station
objects crossing your sky now

MERIDIAN 3

Track MERIDIAN 3 now!
MERIDIAN 3 is classified as:


NORAD ID: 37212
Int'l Code: 2010-058A
Perigee: 1,762.2 km
Apogee: 38,607.4 km
Inclination: 63.2 °
Period: 717.8 minutes
Semi major axis: 26555 km
RCS: 24.3984 m2 (large)
Launch date: November 2, 2010
Source: Commonwealth of Independent States (former USSR) (CIS)
Launch site: PLESETSK MISSILE AND SPACE COMPLEX (PKMTR)

MERIDIAN 3 is a Russian military communications satellite.
Your satellite tracking list
Your tracking list is empty





NASA's NSSDC Master Catalog

Two Line Element Set (TLE):
1 37212U 10058A   17141.86834516 +.00000152 +00000-0 +10000-3 0  9996
2 37212 063.1837 077.6497 6937325 274.1695 016.3340 02.00615432047982
Source of the keplerian elements: AFSPC